CAPE
0 0 0 0 3 8 10 0 0 0 0 0 0 0 0 0 0 0 0 0 0 25 149 121 107 63 20 4 0 3 6 3 1 0 0 0 10 0 17 31 9 3 3 3
0 0 0 0 0 0 4 0 0 0 14 2 0 0 0 0 0 0 0 0 0 13 134 153 74 27 21 0 0 1 13 12 8 0 0 3 5 0 0 5 10 4 11 3
0 0 0 0 0 0 1 0 0 0 12 0 0 0 0 0 0 0 0 1 0 8 84 59 35 9 26 0 0 0 1 8 8 1 0 1 1 0 0 0 13 4 8 8
0 0 0 0 0 0 0 0 0 0 2 0 0 0 0 0 0 0 0 0 0 0 66 25 48 34 26 10 0 0 0 4 4 5 3 0 0 0 0 4 10 14 5 9
0 0 0 0 0 0 0 11 0 0 0 0 0 0 0 0 0 0 0 0 0 0 67 55 49 50 19 4 0 14 0 4 3 1 5 0 0 0 0 2 11 15 2 6
0 0 0 0 0 0 0 0 0 0 0 0 0 0 0 0 0 0 0 0 0 0 58 72 47 57 47 13 13 6 5 0 2 11 2 1 0 0 0 0 0 4 10 5
0 0 0 0 0 0 0 0 0 0 0 0 0 0 0 0 0 0 0 0 0 0 25 55 81 97 51 26 2 0 0 0 1 6 0 2 0 0 0 0 0 2 0 4
0 0 0 0 0 0 0 0 0 0 0 0 0 0 0 0 0 0 0 0 0 0 96 123 137 100 64 33 0 0 0 0 0 0 2 2 0 0 0 0 0 7 13 0
0 0 0 0 0 0 0 0 0 0 0 0 0 0 0 1 1 0 0 0 0 0 50 164 140 120 91 45 0 0 0 0 0 1 4 0 0 0 0 0 0 0 1 10
0 0 0 0 0 0 0 0 0 0 0 0 0 3 0 0 12 0 0 0 0 2 2 109 128 115 104 80 33 0 0 0 0 0 2 2 0 0 0 0 0 0 0 2
0 0 0 0 0 0 0 0 0 0 0 0 0 2 0 0 5 1 4 5 10 4 2 1 142 122 113 104 95 24 0 0 0 0 0 0 2 0 0 0 0 0 0 0
2 5 0 0 0 0 0 0 0 0 0 0 1 21 0 0 0 0 2 5 1 0 0 0 173 152 127 127 133 97 10 0 0 0 0 0 2 0 0 0 5 1 0 0
0 14 0 0 0 4 0 0 0 0 0 0 0 6 0 0 0 0 1 1 0 0 0 33 168 210 184 158 193 204 125 72 7 0 0 0 0 0 2 8 14 3 4 0
0 0 2 0 0 10 0 0 0 0 0 0 0 2 0 0 0 0 0 0 10 0 14 36 86 129 253 187 170 203 227 227 188 147 95 13 0 2 0 1 8 26 25 7
1 0 0 0 0 9 0 0 0 0 0 0 0 0 10 0 0 0 0 4 0 0 0 12 10 27 52 106 154 217 252 205 197 265 250 219 166 85 17 11 0 8 34 20
9 0 1 0 0 10 0 0 0 0 0 0 0 0 0 1 0 0 0 0 0 0 0 0 1 3 1 18 53 71 83 218 202 164 176 237 193 168 119 71 53 14 3 13
19 0 0 0 0 0 0 0 0 11 0 0 0 5 9 0 0 0 0 0 0 0 0 0 0 0 2 0 3 19 18 18 29 171 261 205 122 220 208 140 105 67 43 26
1 0 0 0 0 0 0 0 8 0 16 0 0 1 0 2 0 2 0 0 0 0 0 0 0 0 0 0 0 0 0 0 0 0 29 130 245 159 126 187 187 174 152 157
0 0 0 0 0 0 0 1 3 6 0 2 30 23 29 1 0 1 0 0 0 0 0 0 0 0 0 0 0 0 0 0 0 0 0 0 16 261 277 191 184 226 161 121
0 0 0 0 0 0 0 0 0 13 1 29 13 0 14 6 1 0 0 0 0 0 0 0 0 0 0 0 0 0 0 0 0 0 0 0 0 0 44 252 254 244 219 185
1 0 0 0 0 0 0 1 0 0 0 1 0 5 14 7 1 1 2 0 0 0 0 0 0 0 0 0 0 0 0 0 0 0 0 0 0 0 0 0 138 307 260 256
0 0 0 0 0 0 8 5 13 1 8 16 15 17 27 3 0 0 0 0 0 0 0 0 0 0 0 0 0 0 0 0 0 0 0 0 0 0 0 0 8 124 359 340
22 0 3 0 0 39 114 37 20 13 35 27 16 5 0 0 0 0 0 0 0 0 0 0 0 0 0 0 0 0 0 0 0 0 0 0 0 0 0 0 0 12 152 363
0 2 17 41 4 116 32 29 14 6 3 7 0 0 0 0 0 0 0 0 0 0 0 0 0 0 0 0 0 0 0 0 0 0 0 0 0 0 1 1 2 1 10 129
0 4 22 81 23 28 30 23 15 30 27 21 14 10 10 0 0 0 0 0 0 0 0 0 0 0 0 0 0 0 0 0 0 0 0 0 0 0 0 0 0 0 1 4
6 7 12 25 6 6 2 8 14 7 14 9 20 19 4 0 0 0 0 0 0 0 0 0 0 0 0 0 0 0 0 0 0 0 0 0 0 0 0 0 0 0 0 0
CIN
0 0 0 0 -3 -3 -4 0 0 0 0 0 0 0 0 0 0 0 0 0 0 -135 -103 -91 -103 -122 -69 -324 0 -7 -6 0 0 0 0 0 -3 0 0 0 -3 0 -3 0
0 0 0 0 -2 0 -4 0 0 0 -14 -11 0 0 0 0 0 0 0 -5 0 -48 -87 -95 -106 -86 -104 0 0 -7 -32 -51 0 0 0 -10 -23 0 0 -2 -1 -2 0 0
0 0 0 0 0 0 -4 0 0 0 -5 0 0 0 0 0 0 0 0 -18 0 -78 -120 -116 -109 -32 -89 0 0 0 0 -51 0 0 0 -6 -17 0 0 0 0 -1 -1 0
0 0 0 0 0 0 0 0 0 -2 -5 0 0 0 0 0 0 0 0 0 -4 -18 -114 -96 -93 -63 -91 -189 0 0 -6 -1 0 0 -4 0 0 0 0 -4 0 -2 -2 0
0 0 0 0 0 0 0 -41 0 0 0 0 0 0 0 0 0 0 0 0 0 0 -100 -88 -86 -90 -79 -74 0 -298 0 -12 -2 0 0 0 0 0 0 0 0 -1 -3 0
0 0 0 0 0 0 -9 0 0 0 0 0 0 0 0 0 0 0 0 0 0 0 -126 -92 -71 -69 -85 -360 -356 -345 -351 0 -13 0 0 0 0 0 0 0 0 0 0 -2
0 0 0 0 0 0 0 0 0 0 0 0 0 0 0 0 0 0 0 0 0 0 -199 -97 -81 -74 -82 -85 -233 0 0 0 -4 0 0 0 0 0 0 0 0 0 0 -1
0 0 0 0 0 0 0 0 0 0 0 0 0 0 0 0 0 0 0 0 0 0 -128 -76 -75 -85 -77 -106 0 0 0 0 0 0 0 0 0 0 0 0 0 -3 0 0
0 0 0 0 0 0 0 0 0 0 0 0 0 0 0 -9 -5 0 0 0 0 0 -72 -76 -85 -82 -104 -101 0 0 0 0 0 0 0 0 0 0 0 0 0 0 0 -2
0 0 0 0 0 0 0 0 0 0 0 0 0 -5 0 0 -7 -3 0 0 0 -19 -16 -76 -77 -92 -96 -99 -92 -1 0 0 0 0 -2 0 0 0 0 0 0 0 0 -2
0 0 0 0 0 0 0 0 0 0 0 0 0 -4 0 -2 -6 -4 -13 -20 -11 -13 -11 -9 -73 -85 -76 -85 -87 -116 0 0 0 0 0 0 0 0 0 0 0 0 0 0
-3 -5 0 0 0 0 0 0 0 0 0 0 -1 -3 0 0 -2 0 -14 -9 -17 0 0 0 -96 -58 -50 -71 -89 -74 -149 0 0 0 0 0 0 0 0 0 -293 0 0 0
0 -2 0 0 0 -7 0 0 0 0 0 0 0 -6 0 0 0 0 -4 -5 -2 -1 -6 -21 -33 -50 -39 -54 -60 -66 -97 -123 -57 0 0 0 0 0 -62 -58 -323 -276 -70 0
0 0 -1 0 0 -1 0 0 0 0 0 0 0 -4 0 0 0 -1 0 -7 -2 0 -23 -21 -26 -33 -19 -19 -11 -33 -49 -55 -74 -98 -114 -52 0 -25 0 -47 -60 -166 -276 -323
-35 0 0 0 -1 -6 0 0 0 0 0 0 0 -2 -2 0 0 -2 0 -17 0 0 -1 -9 -13 -15 -40 -57 -47 -33 -29 -24 -43 -48 -84 -106 -129 -137 -270 -222 0 -69 -211 -32
-26 0 -1 0 0 -12 0 0 0 0 0 0 0 0 0 -4 0 0 0 0 0 0 0 0 -6 -11 -7 -19 -22 -55 -68 -70 -49 -91 -82 -60 -90 -102 -135 -159 -242 -247 -1 -50
-8 0 0 0 0 0 0 0 0 -6 0 0 0 -5 -5 0 0 0 0 0 0 0 0 0 0 0 -6 0 -5 -4 -19 -21 -52 -81 -93 -95 -81 -71 -97 -115 -146 -222 -224 -226
-2 0 0 0 0 0 0 0 -12 0 -12 0 0 -5 0 -22 0 -1 0 0 0 0 0 0 0 0 0 0 0 0 0 0 0 0 -36 -61 -81 -100 -94 -64 -87 -139 -233 -206
-2 0 0 0 0 0 0 -2 -2 -7 -1 -1 -6 -4 -11 -7 -1 -1 0 0 0 0 0 0 0 0 0 0 0 0 0 0 0 0 0 0 -15 -50 -79 -91 -71 -71 -89 -132
0 0 0 0 0 0 0 0 -2 -28 -1 -5 -3 0 -4 -5 -1 0 0 0 0 0 0 0 0 0 0 0 0 0 0 0 0 0 0 0 0 0 -39 -55 -78 -86 -65 -54
-1 -2 0 0 0 0 0 -2 0 -2 0 -5 0 -6 -12 -18 -24 -2 -1 0 0 0 0 0 0 0 0 0 0 0 0 0 0 0 0 0 0 0 0 -44 -49 -44 -52 -41
0 0 0 0 0 0 -68 -15 -2 -1 -1 -2 -6 -4 -2 -10 0 0 0 0 0 0 0 0 0 0 0 0 0 0 0 0 0 0 0 0 0 0 0 0 -72 -20 -1 -4
-6 0 -8 0 0 -23 -26 -44 -20 -9 -16 -7 0 -6 0 0 0 0 0 0 0 0 0 0 0 0 0 0 0 0 0 0 0 0 0 0 0 0 0 0 0 -27 -8 0
-1 -1 -5 -14 -4 -15 -29 -12 -12 -25 -26 -37 -21 0 0 0 0 0 0 0 0 0 0 0 0 0 0 0 0 0 0 0 0 0 0 0 0 0 0 0 0 0 -3 -1
0 -14 -34 -25 -6 -17 -2 -1 -10 -15 -8 -6 -3 -5 -3 -3 0 0 0 0 0 0 0 0 0 0 0 0 0 0 0 0 0 0 0 0 0 0 0 0 0 -3 -15 -3
-4 -1 -13 -32 -22 -2 -2 -2 -4 -3 -4 -3 -2 -1 -3 0 0 0 0 0 0 0 0 0 0 0 0 0 0 0 0 0 0 0 0 0 0 0 0 0 0 0 0 0
Wind_Speed
nan nan nan nan nan nan nan nan nan nan nan nan nan nan nan nan nan nan nan nan nan nan 22 25 24 nan nan nan nan nan nan nan nan nan nan nan nan nan nan nan nan nan nan nan
nan nan nan nan nan nan nan nan nan nan nan nan nan nan nan nan nan nan nan nan nan nan 26 26 nan nan nan nan nan nan nan nan nan nan nan nan nan nan nan nan nan nan nan nan
nan nan nan nan nan nan nan nan nan nan nan nan nan nan nan nan nan nan nan nan nan nan nan nan nan nan nan nan nan nan nan nan nan nan nan nan nan nan nan nan nan nan nan nan
nan nan nan nan nan nan nan nan nan nan nan nan nan nan nan nan nan nan nan nan nan nan nan nan nan nan nan nan nan nan nan nan nan nan nan nan nan nan nan nan nan nan nan nan
nan nan nan nan nan nan nan nan nan nan nan nan nan nan nan nan nan nan nan nan nan nan nan nan nan nan nan nan nan nan nan nan nan nan nan nan nan nan nan nan nan nan nan nan
nan nan nan nan nan nan nan nan nan nan nan nan nan nan nan nan nan nan nan nan nan nan nan nan nan nan nan nan nan nan nan nan nan nan nan nan nan nan nan nan nan nan nan nan
nan nan nan nan nan nan nan nan nan nan nan nan nan nan nan nan nan nan nan nan nan nan nan nan nan nan nan nan nan nan nan nan nan nan nan nan nan nan nan nan nan nan nan nan
nan nan nan nan nan nan nan nan nan nan nan nan nan nan nan nan nan nan nan nan nan nan nan 25 21 20 nan nan nan nan nan nan nan nan nan nan nan nan nan nan nan nan nan nan
nan nan nan nan nan nan nan nan nan nan nan nan nan nan nan nan nan nan nan nan nan nan nan 25 23 21 nan nan nan nan nan nan nan nan nan nan nan nan nan nan nan nan nan nan
nan nan nan nan nan nan nan nan nan nan nan nan nan nan nan nan nan nan nan nan nan nan nan 27 24 24 23 nan nan nan nan nan nan nan nan nan nan nan nan nan nan nan nan nan
nan nan nan nan nan nan nan nan nan nan nan nan nan nan nan nan nan nan nan nan nan nan nan nan 22 27 28 26 nan nan nan nan nan nan nan nan nan nan nan nan nan nan nan nan
nan nan nan nan nan nan nan nan nan nan nan nan nan nan nan nan nan nan nan nan nan nan nan nan 30 26 29 30 27 nan nan nan nan nan nan nan nan nan nan nan nan nan nan nan
nan nan nan nan nan nan nan nan nan nan nan nan nan nan nan nan nan nan nan nan nan nan nan nan 44 36 27 30 32 27 27 nan nan nan nan nan nan nan nan nan nan nan nan nan
nan nan nan nan nan nan nan nan nan nan nan nan nan nan nan nan nan nan nan nan nan nan nan nan nan 37 39 43 37 28 27 28 26 25 nan nan nan nan nan nan nan nan nan nan
nan nan nan nan nan nan nan nan nan nan nan nan nan nan nan nan nan nan nan nan nan nan nan nan nan nan nan 37 35 35 36 25 24 26 24 24 24 nan nan nan nan nan nan nan
nan nan nan nan nan nan nan nan nan nan nan nan nan nan nan nan nan nan nan nan nan nan nan nan nan nan nan nan nan nan nan 28 31 19 18 24 25 25 26 nan nan nan nan nan
nan nan nan nan nan nan nan nan nan nan nan nan nan nan nan nan nan nan nan nan nan nan nan nan nan nan nan nan nan nan nan nan nan 42 43 31 27 32 30 31 32 nan nan nan
nan nan nan nan nan nan nan nan nan nan nan nan nan nan nan nan nan nan nan nan nan nan nan nan nan nan nan nan nan nan nan nan nan nan nan 45 44 41 33 37 38 38 42 41
nan nan nan nan nan nan nan nan nan nan nan nan nan nan nan nan nan nan nan nan nan nan nan nan nan nan nan nan nan nan nan nan nan nan nan nan nan 46 44 42 37 40 41 42
nan nan nan nan nan nan nan nan nan nan nan nan nan nan nan nan nan nan nan nan nan nan nan nan nan nan nan nan nan nan nan nan nan nan nan nan nan nan nan 45 44 35 40 42
nan nan nan nan nan nan nan nan nan nan nan nan nan nan nan nan nan nan nan nan nan nan nan nan nan nan nan nan nan nan nan nan nan nan nan nan nan nan nan nan 51 50 52 57
nan nan nan nan nan nan nan nan nan nan nan nan nan nan nan nan nan nan nan nan nan nan nan nan nan nan nan nan nan nan nan nan nan nan nan nan nan nan nan nan nan 62 60 63
nan nan nan nan nan nan 42 nan nan nan nan nan nan nan nan nan nan nan nan nan nan nan nan nan nan nan nan nan nan nan nan nan nan nan nan nan nan nan nan nan nan nan 69 69
nan nan nan nan nan 36 nan nan nan nan nan nan nan nan nan nan nan nan nan nan nan nan nan nan nan nan nan nan nan nan nan nan nan nan nan nan nan nan nan nan nan nan nan 74
nan nan nan nan nan nan nan nan nan nan nan nan nan nan nan nan nan nan nan nan nan nan nan nan nan nan nan nan nan nan nan nan nan nan nan nan nan nan nan nan nan nan nan nan
nan nan nan nan nan nan nan nan nan nan nan nan nan nan nan nan nan nan nan nan nan nan nan nan nan nan nan nan nan nan nan nan nan nan nan nan nan nan nan nan nan nan nan nan
Wind_Direction
nan nan nan nan nan nan nan nan nan nan nan nan nan nan nan nan nan nan nan nan nan nan 327 313 297 nan nan nan nan nan nan nan nan nan nan nan nan nan nan nan nan nan nan nan
nan nan nan nan nan nan nan nan nan nan nan nan nan nan nan nan nan nan nan nan nan nan 313 314 nan nan nan nan nan nan nan nan nan nan nan nan nan nan nan nan nan nan nan nan
nan nan nan nan nan nan nan nan nan nan nan nan nan nan nan nan nan nan nan nan nan nan nan nan nan nan nan nan nan nan nan nan nan nan nan nan nan nan nan nan nan nan nan nan
nan nan nan nan nan nan nan nan nan nan nan nan nan nan nan nan nan nan nan nan nan nan nan nan nan nan nan nan nan nan nan nan nan nan nan nan nan nan nan nan nan nan nan nan
nan nan nan nan nan nan nan nan nan nan nan nan nan nan nan nan nan nan nan nan nan nan nan nan nan nan nan nan nan nan nan nan nan nan nan nan nan nan nan nan nan nan nan nan
nan nan nan nan nan nan nan nan nan nan nan nan nan nan nan nan nan nan nan nan nan nan nan nan nan nan nan nan nan nan nan nan nan nan nan nan nan nan nan nan nan nan nan nan
nan nan nan nan nan nan nan nan nan nan nan nan nan nan nan nan nan nan nan nan nan nan nan nan nan nan nan nan nan nan nan nan nan nan nan nan nan nan nan nan nan nan nan nan
nan nan nan nan nan nan nan nan nan nan nan nan nan nan nan nan nan nan nan nan nan nan nan 309 306 290 nan nan nan nan nan nan nan nan nan nan nan nan nan nan nan nan nan nan
nan nan nan nan nan nan nan nan nan nan nan nan nan nan nan nan nan nan nan nan nan nan nan 302 299 291 nan nan nan nan nan nan nan nan nan nan nan nan nan nan nan nan nan nan
nan nan nan nan nan nan nan nan nan nan nan nan nan nan nan nan nan nan nan nan nan nan nan 288 301 294 285 nan nan nan nan nan nan nan nan nan nan nan nan nan nan nan nan nan
nan nan nan nan nan nan nan nan nan nan nan nan nan nan nan nan nan nan nan nan nan nan nan nan 298 286 285 280 nan nan nan nan nan nan nan nan nan nan nan nan nan nan nan nan
nan nan nan nan nan nan nan nan nan nan nan nan nan nan nan nan nan nan nan nan nan nan nan nan 284 277 281 283 278 nan nan nan nan nan nan nan nan nan nan nan nan nan nan nan
nan nan nan nan nan nan nan nan nan nan nan nan nan nan nan nan nan nan nan nan nan nan nan nan 251 245 255 273 279 278 275 nan nan nan nan nan nan nan nan nan nan nan nan nan
nan nan nan nan nan nan nan nan nan nan nan nan nan nan nan nan nan nan nan nan nan nan nan nan nan 254 249 248 241 254 272 276 280 287 nan nan nan nan nan nan nan nan nan nan
nan nan nan nan nan nan nan nan nan nan nan nan nan nan nan nan nan nan nan nan nan nan nan nan nan nan nan 240 240 244 243 263 281 295 299 301 303 nan nan nan nan nan nan nan
nan nan nan nan nan nan nan nan nan nan nan nan nan nan nan nan nan nan nan nan nan nan nan nan nan nan nan nan nan nan nan 238 239 261 276 297 292 293 302 nan nan nan nan nan
nan nan nan nan nan nan nan nan nan nan nan nan nan nan nan nan nan nan nan nan nan nan nan nan nan nan nan nan nan nan nan nan nan 246 239 247 271 295 303 298 299 nan nan nan
nan nan nan nan nan nan nan nan nan nan nan nan nan nan nan nan nan nan nan nan nan nan nan nan nan nan nan nan nan nan nan nan nan nan nan 247 251 252 261 298 305 307 305 307
nan nan nan nan nan nan nan nan nan nan nan nan nan nan nan nan nan nan nan nan nan nan nan nan nan nan nan nan nan nan nan nan nan nan nan nan nan 249 253 255 285 293 293 296
nan nan nan nan nan nan nan nan nan nan nan nan nan nan nan nan nan nan nan nan nan nan nan nan nan nan nan nan nan nan nan nan nan nan nan nan nan nan nan 248 249 262 283 283
nan nan nan nan nan nan nan nan nan nan nan nan nan nan nan nan nan nan nan nan nan nan nan nan nan nan nan nan nan nan nan nan nan nan nan nan nan nan nan nan 253 248 253 265
nan nan nan nan nan nan nan nan nan nan nan nan nan nan nan nan nan nan nan nan nan nan nan nan nan nan nan nan nan nan nan nan nan nan nan nan nan nan nan nan nan 255 252 255
nan nan nan nan nan nan 211 nan nan nan nan nan nan nan nan nan nan nan nan nan nan nan nan nan nan nan nan nan nan nan nan nan nan nan nan nan nan nan nan nan nan nan 258 259
nan nan nan nan nan 234 nan nan nan nan nan nan nan nan nan nan nan nan nan nan nan nan nan nan nan nan nan nan nan nan nan nan nan nan nan nan nan nan nan nan nan nan nan 260
nan nan nan nan nan nan nan nan nan nan nan nan nan nan nan nan nan nan nan nan nan nan nan nan nan nan nan nan nan nan nan nan nan nan nan nan nan nan nan nan nan nan nan nan
nan nan nan nan nan nan nan nan nan nan nan nan nan nan nan nan nan nan nan nan nan nan nan nan nan nan nan nan nan nan nan nan nan nan nan nan nan nan nan nan nan nan nan nan